Home   Weather   Marburg   Past weeks

Flag for Germany Past Weather in Marburg, Hesse, Germany — Yesterday and Last 2 Weeks

Now
61 °F

Passing clouds.


Feels Like: 61 °F
Forecast: 46 / 66 °F
Wind: 14 mph from Northwest

Location: Hessen

Current Time: May 23, 2017 at 10:55:31 pm

Latest Report: May 23, 2017 at 8:50 pm


Visibility: N/A

Pressure: 30.12 "Hg

Humidity: 63%

Dew Point: 48 °F

Location of MarburgLocation

Past Weather in Marburg — Graph

°F

Marburg Temperature Yesterday

Maximum temperature yesterday: 66 °F (at 3:50 pm)
Minimum temperature yesterday: 52 °F (at 7:50 am)
Average temperature yesterday: 62 °F

High & Low Weather Summary for the Past Weeks

 TemperatureHumidityPressure
High73 °F (May 17, 2:20 pm)100% (May 8, 8:50 pm)30.42 "Hg (May 8, 8:50 pm)
Low36 °F (May 9, 7:50 am)34% (May 10, 6:20 pm)29.50 "Hg (May 11, 6:20 pm)
Average59 °F63%30.03 "Hg
* Reported May 8 8:50 pm — May 23 8:50 pm, Marburg. Weather by CustomWeather, © 2017

Note: Actual official high and low records may vary slightly from our data, if they occured in-between our weather recording intervals... More about our weather records

Advertising

Marburg Weather History for the Previous 24 Hours

Scroll right to see more
 ConditionsComfort  
Time TempWeatherWind HumidityBarometerVisibility
8:50 pm
Tue, May 23
61 °FPassing clouds.14 mph63%30.12 "HgN/A
8:20 pm63 °FPassing clouds.17 mph64%30.12 "HgN/A
7:50 pm63 °FPassing clouds.18 mph68%30.12 "HgN/A
7:20 pm64 °FPassing clouds.16 mph64%30.09 "HgN/A
6:50 pm64 °FPassing clouds.15 mph64%30.09 "HgN/A
6:20 pm66 °FPassing clouds.15 mph60%30.09 "HgN/A
5:50 pm66 °FPassing clouds.16 mph56%30.09 "HgN/A
5:20 pm66 °FPassing clouds.15 mph56%30.09 "HgN/A
4:50 pm68 °FPassing clouds.17 mph49%30.09 "HgN/A
4:20 pm68 °FPassing clouds.17 mph53%30.09 "HgN/A
3:50 pm70 °FPassing clouds.15 mph43%30.09 "HgN/A
3:20 pm70 °FPassing clouds.16 mph46%30.09 "HgN/A
2:50 pm70 °FPassing clouds.13 mph50%30.09 "HgN/A
2:20 pm68 °FPassing clouds.14 mph53%30.09 "HgN/A
1:50 pm70 °FPassing clouds.14 mph53%30.09 "HgN/A
1:20 pm70 °FScattered clouds.16 mph50%30.09 "HgN/A
12:50 pm68 °FScattered clouds.14 mph53%30.07 "HgN/A
12:20 pm68 °FPassing clouds.14 mph53%30.07 "HgN/A
11:50 am66 °FPassing clouds.12 mph52%30.07 "HgN/A
11:20 am66 °FPassing clouds.14 mph60%30.07 "HgN/A
10:50 am64 °FSunny.12 mph60%30.07 "Hg10 mi
10:20 am66 °FSunny.10 mph56%30.07 "Hg10 mi
9:50 am66 °FSunny.7 mph60%30.07 "Hg10 mi
9:20 am64 °FSunny.10 mph56%30.07 "Hg10 mi
8:50 am63 °FSunny.8 mph64%30.07 "Hg10 mi
8:20 am61 °FSunny.8 mph63%30.07 "Hg10 mi
7:50 am61 °FPassing clouds.7 mph63%30.07 "HgN/A
7:20 am61 °FSunny.8 mph63%30.07 "Hg10 mi
Weather by CustomWeather, © 2017

See weather overviewHow to use our weather pages